Monterey, Australia

1:52 AM AEST on September 27, 2017 (GMT +1000)
Monterey

Weather History for 94767 - May, 2013

Change the Weather History Date:

Wednesday, May 1, 2013

  Actual Average Record
Temperature  
Mean Temperature 68 °F -  
Max Temperature 75 °F 68 °F - ()
Min Temperature 61 °F 51 °F - ()
Cooling Degree Days 3    
Growing Degree Days 18 (Base 50)    
Moisture  
Dew Point 60 °F    
Average Humidity 78    
Maximum Humidity 94    
Minimum Humidity 48    
Precipitation  
Precipitation 0.00 in 0.12 in - ()
Sea Level Pressure  
Sea Level Pressure 30.04 in    
Wind  
Wind Speed 8 mph ()    
Max Wind Speed 21 mph    
Max Gust Speed -    
Visibility 6.6 miles    
Events      
T = Trace of Precipitation, MM = Missing Value Source: Averaged Metar Reports

Daily Weather History Graph

Daily Weather History Graph

Search for Another Location

Airport or City:

Trip Planner

Search our weather history database for the weather conditions in past years. The results will help you decide how hot, cold, wet, or windy it might be!

Date:

Astronomy

May. 01, 2013 Rise Set
Actual Time 6:29 AM AEST 5:14 PM AEST
Civil Twilight 6:03 AM AEST 5:40 PM AEST
Nautical Twilight 5:34 AM AEST 6:10 PM AEST
Astronomical Twilight 5:05 AM AEST 6:39 PM AEST
Moon 10:34 PM AEST (5/1) 11:38 AM AEST (5/1)
Length of Visible Light 11h 36m
Length of Day
10h 44m
Waning Gibbous, 66% of the Moon is Illuminated
May 1
Waning Gibbous
May 2
Last Quarter
May 10
New
May 18
First Quarter
May 25
Full

Hourly Weather History & Observations

Time (AEST) Temp. Dew Point Humidity Pressure Visibility Wind Dir Wind Speed Gust Speed Precip Events Conditions
12:00 AM 65 °F 60 °F 79% 30.17 in 16 mi NW 4.6 mph - -   Partly Cloudy
12:00 AM 66.2 °F 60.8 °F 83% 30.15 in 6.2 mi NW 4.6 mph - N/A   Mostly Cloudy
12:30 AM 64.4 °F 60.8 °F 88% 30.15 in - North 4.6 mph - N/A   Clear
1:00 AM 64 °F 60 °F 84% 30.16 in - WNW 3.5 mph - -  
1:00 AM 64.4 °F 60.8 °F 88% 30.15 in - WNW 3.5 mph - N/A   Clear
1:30 AM 64.4 °F 60.8 °F 88% 30.12 in - NW 4.6 mph - N/A   Clear
2:00 AM 64.4 °F 60.8 °F 88% 30.12 in 6.2 mi North 5.8 mph - N/A   Scattered Clouds
2:30 AM 64.4 °F 60.8 °F 88% 30.09 in 6.2 mi North 8.1 mph - N/A   Scattered Clouds
3:00 AM 63 °F 60 °F 88% 30.11 in 16 mi NW 4.6 mph - -   Partly Cloudy
3:00 AM 62.6 °F 60.8 °F 94% 30.09 in 6.2 mi NW 4.6 mph - N/A   Scattered Clouds
3:30 AM 64.4 °F 60.8 °F 88% 30.09 in 6.2 mi North 4.6 mph - N/A   Scattered Clouds
4:00 AM 64 °F 60 °F 84% 30.09 in - North 6.9 mph - -  
4:00 AM 64.4 °F 60.8 °F 88% 30.06 in 6.2 mi North 6.9 mph - N/A   Partly Cloudy
4:30 AM 64.4 °F 60.8 °F 88% 30.06 in - NNW 5.8 mph - N/A   Clear
5:00 AM 62.6 °F 60.8 °F 94% 30.06 in - WNW 6.9 mph - N/A   Clear
5:30 AM 62.6 °F 59.0 °F 88% 30.06 in - NW 6.9 mph - N/A   Clear
6:00 AM 63 °F 60 °F 85% 30.08 in 6 mi WNW 6.9 mph - -   Mist
6:00 AM 62.6 °F 59.0 °F 88% 30.06 in 5.6 mi WNW 6.9 mph - N/A   Unknown
6:30 AM 64.4 °F 59.0 °F 83% 30.06 in 5.6 mi WNW 6.9 mph - N/A   Unknown
7:00 AM 63 °F 59 °F 84% 30.09 in - NW 6.9 mph - -  
7:00 AM 62.6 °F 59.0 °F 88% 30.06 in 5.0 mi NW 6.9 mph - N/A   Unknown
7:30 AM 66.2 °F 60.8 °F 83% 30.06 in 5.0 mi NW 5.8 mph - N/A   Unknown
7:54 AM 66.2 °F 60.8 °F 83% 30.06 in 5.0 mi NW 8.1 mph - N/A   Mostly Cloudy
8:00 AM 68.0 °F 60.8 °F 78% 30.06 in 5.0 mi NW 8.1 mph - N/A   Mostly Cloudy
8:18 AM 68.0 °F 60.8 °F 78% 30.06 in 3.7 mi NW 9.2 mph - N/A   Mostly Cloudy
8:30 AM 68.0 °F 60.8 °F 78% 30.06 in 3.7 mi NW 10.4 mph - N/A   Mostly Cloudy
9:00 AM 67 °F 61 °F 74% 30.08 in 4 mi NW 10.4 mph - -   Haze
9:00 AM 68.0 °F 60.8 °F 78% 30.06 in 3.7 mi NW 10.4 mph - N/A   Mostly Cloudy
9:30 AM 69.8 °F 60.8 °F 73% 30.06 in 3.1 mi NW 9.2 mph - N/A   Haze
10:00 AM 72 °F 61 °F 59% 30.06 in - NNW 8.1 mph - -  
10:00 AM 71.6 °F 60.8 °F 69% 30.04 in 4.3 mi NNW 8.1 mph - N/A   Partly Cloudy
10:30 AM 73.4 °F 60.8 °F 65% 30.04 in 4.3 mi NW 8.1 mph - N/A   Unknown
11:00 AM 71.6 °F 60.8 °F 69% 30.01 in 4.3 mi West 5.8 mph - N/A   Unknown
11:30 AM 71.6 °F 60.8 °F 69% 30.01 in 5.0 mi WNW 4.6 mph - N/A   Partly Cloudy
12:00 PM 74 °F 58 °F 48% 29.99 in 6 mi East 2.3 mph - -   Haze
12:00 PM 73.4 °F 59.0 °F 61% 29.98 in 5.6 mi East 2.3 mph - N/A   Partly Cloudy
12:30 PM 75.2 °F 59.0 °F 57% 29.95 in 6.2 mi SSE 6.9 mph - N/A   Scattered Clouds
1:00 PM 69 °F 64 °F 79% 29.97 in - South 17.3 mph - -  
1:00 PM 69.8 °F 64.4 °F 83% 29.95 in 6.2 mi South 17.3 mph - N/A   Scattered Clouds
1:30 PM 69.8 °F 60.8 °F 73% 29.95 in 6.2 mi South 15.0 mph - N/A   Scattered Clouds
2:00 PM 69.8 °F 62.6 °F 78% 29.95 in 6.2 mi South 15.0 mph - N/A   Partly Cloudy
2:30 PM 69.8 °F 62.6 °F 78% 29.95 in 6.2 mi South 15.0 mph - N/A   Partly Cloudy
3:00 PM 69 °F 63 °F 74% 29.96 in 16 mi South 17.3 mph - -   Partly Cloudy
3:00 PM 69.8 °F 62.6 °F 78% 29.95 in 6.2 mi South 17.3 mph - N/A   Scattered Clouds
3:30 PM 69.8 °F 62.6 °F 78% 29.95 in 6.2 mi South 16.1 mph - N/A   Mostly Cloudy
4:00 PM 69 °F 64 °F 79% 29.97 in - South 17.3 mph - -  
4:00 PM 69.8 °F 64.4 °F 83% 29.95 in 6.2 mi South 17.3 mph - N/A   Mostly Cloudy
4:30 PM 68.0 °F 62.6 °F 83% 29.98 in 6.2 mi South 16.1 mph - N/A   Mostly Cloudy
5:00 PM 69.8 °F 60.8 °F 73% 29.98 in 6.2 mi South 16.1 mph - N/A   Scattered Clouds
5:30 PM 68.0 °F 60.8 °F 78% 29.98 in 6.2 mi South 17.3 mph - N/A   Partly Cloudy
6:00 PM 69 °F 61 °F 70% 30.02 in 16 mi SSE 17.3 mph - -   Partly Cloudy
6:00 PM 68.0 °F 60.8 °F 78% 30.01 in 6.2 mi SSE 17.3 mph - N/A   Mostly Cloudy
6:30 PM 68.0 °F 60.8 °F 78% 30.01 in 6.2 mi SSE 15.0 mph - N/A   Scattered Clouds
7:00 PM 68 °F 62 °F 74% 30.04 in - South 16.1 mph - -  
7:00 PM 68.0 °F 62.6 °F 83% 30.04 in 6.2 mi South 16.1 mph - N/A   Mostly Cloudy
7:30 PM 68.0 °F 60.8 °F 78% 30.04 in 6.2 mi South 15.0 mph - N/A   Scattered Clouds
8:00 PM 68.0 °F 60.8 °F 78% 30.04 in 6.2 mi South 13.8 mph - N/A   Mostly Cloudy
8:30 PM 68.0 °F 60.8 °F 78% 30.04 in 6.2 mi South 11.5 mph - N/A   Mostly Cloudy
9:00 PM 67 °F 59 °F 69% 30.07 in 16 mi South 19.6 mph - -   Partly Cloudy
9:00 PM 66.2 °F 59.0 °F 78% 30.06 in 6.2 mi South 19.6 mph - N/A   Mostly Cloudy
9:30 PM 66.2 °F 55.4 °F 68% 30.06 in 6.2 mi South 17.3 mph - N/A   Mostly Cloudy
10:00 PM 66 °F 57 °F 66% 30.09 in - South 18.4 mph - -  
10:00 PM 66.2 °F 57.2 °F 73% 30.06 in 6.2 mi South 18.4 mph - N/A   Scattered Clouds
10:30 PM 66.2 °F 55.4 °F 68% 30.06 in 6.2 mi South 19.6 mph - N/A   Scattered Clouds
11:00 PM 66.2 °F 53.6 °F 64% 30.06 in 6.2 mi South 20.7 mph - N/A   Partly Cloudy
11:30 PM 66.2 °F 53.6 °F 64% 30.09 in 6.2 mi South 16.1 mph - N/A   Partly Cloudy